Location: �terpigny
(49.8910°N, 2.9249°E)
Time: 03:57:29
(UTC+00:00)

DIWATA 2B (PO-101) - Pass Details

Date: 04 July 2022
Orbit: 583 x 599 km, 98.0° (Epoch: 13 August)

Event Time Altitude Azimuth Distance (km) Brightness Sun altitude
Exits shadow 00:28:33 - 123° (ESE) 2,302 ? -16.8°
Reaches altitude 10° 00:29:35 10° 116° (ESE) 1,940 ? -16.8°
Maximum altitude 00:32:57 24° 63° (ENE) 1,276 ? -16.7°
Drops below altitude 10° 00:36:18 10° 10° (N) 1,951 ? -16.6°
Sets 00:38:48 0° 357° (N) 2,858 ? -16.5°
